#timestamp,LO_Frequency,Hit 
1501419615.4,286047087.3,N
1501419635.2,286047087.8,N
1501419655.1,286047089.8,N
1501419656.0,286047089.8,N
1501419675.8,286047090.6,N
1501419695.6,286047088.5,N
1501419715.5,286047088.2,N
1501419735.3,286047092.1,N
1501419755.1,286047092.3,N
1501419775.9,286047090.7,N
1501419795.7,286047088.3,N
1501419815.5,286047088.6,N
1501419835.4,286047087.9,N
1501419855.2,286047088.9,N
1501419875.0,286047090.0,N
1501419875.9,286047090.0,N
1501419895.8,286047091.4,N
1501419915.6,286047093.8,N
1501419935.4,286047090.0,N
1501419955.2,286047088.2,N
1501419975.1,286047086.9,N
1501419976.0,286047086.9,N
1501419995.8,286047084.8,N
1501420015.6,286047090.8,N
1501420035.5,286047087.9,N
1501420055.3,286047088.8,N
1501420075.1,286047086.7,N
1501420095.9,286047083.3,N
1501420115.7,286047081.3,N
1501420135.5,286047081.7,N
1501420155.4,286047083.8,N
1501420175.2,286047082.1,N
1501420195.0,286047082.2,N
1501420195.9,286047082.2,N
1501420215.8,286047082.3,N
1501420235.6,286047080.3,N
1501420255.4,286047080.8,N
1501420275.3,286047080.7,N
1501420295.1,286047079.9,N
1501420296.0,286047079.9,N
1501420315.8,286047080.2,N
1501420335.6,286047076.7,N
1501420355.5,286047078.8,N
1501420375.3,286047079.9,N
1501420395.1,286047079.5,N
1501420415.9,286047076.6,N
1501420435.7,286047076.6,N
1501420455.5,286047077.6,N
1501420475.4,286047078.2,N
1501420495.2,286047081.7,N
1501420515.0,286047081.3,N
1501420515.9,286047081.3,N
1501420535.8,286047079.9,N
1501420555.6,286047080.6,N
1501420575.4,286047078.3,N
1501420595.3,286047078.1,N
1501420615.1,286047082.8,N
1501420616.0,286047082.8,N
1501420635.8,286047083.2,N
1501420655.7,286047085.9,N
1501420675.5,286047085.6,N
1501420695.3,286047085.7,N
1501420715.1,286047086.9,N
1501420735.9,286047086.9,N
1501420755.7,286047085.5,N
1501420775.5,286047088.7,N
1501420795.4,286047089.1,N
1501420815.2,286047089.1,N
1501420835.0,286047090.6,N
1501420835.9,286047090.6,N
1501420855.8,286047091.7,N
1501420875.6,286047090.1,N
1501420895.4,286047087.6,N
1501420915.3,286047083.5,N
1501420935.1,286047082.9,N
1501420936.0,286047082.9,N
1501420955.8,286047087.4,N
1501420975.7,286047083.9,N
1501420995.5,286047081.8,N
1501421015.3,286047081.1,N
1501421035.1,286047081.2,N
1501421055.9,286047080.6,N
1501421075.7,286047079.9,N
1501421095.5,286047080.2,N
1501421115.4,286047082.7,N
1501421135.2,286047076.5,N
1501421155.0,286047081.1,N
1501421155.9,286047081.1,N
1501421175.8,286047079.0,N
1501421195.6,286047076.5,N
1501421215.4,286047079.6,N
1501421235.3,286047075.2,N
1501421255.1,286047076.4,N
1501421256.0,286047076.4,N
1501421275.8,286047077.8,N
1501421295.7,286047076.6,N
1501421315.5,286047077.4,N
1501421335.3,286047079.6,N
1501421355.2,286047077.1,N
1501421375.9,286047076.4,N
1501421395.7,286047074.1,N
1501421415.6,286047074.0,N
1501421435.4,286047077.8,N
1501421455.2,286047074.9,N
1501421475.0,286047073.3,N
1501421475.9,286047073.3,N
1501421495.8,286047072.3,N
1501421515.6,286047078.0,N
1501421535.4,286047074.9,N
1501421555.3,286047076.2,N
1501421575.1,286047073.3,N
1501421576.0,286047073.3,N
1501421595.8,286047071.9,N
1501421615.7,286047074.4,N
1501421635.5,286047076.4,N
1501421655.3,286047071.9,N
1501421675.2,286047072.4,N
1501421695.9,286047074.4,N
1501421715.7,286047072.6,N
1501421735.6,286047074.7,N
1501421755.4,286047072.0,N
1501421775.2,286047072.4,N
1501421795.0,286047070.1,N
1501421795.9,286047070.1,N
1501421815.8,286047069.0,N
1501421835.6,286047070.5,N
1501421855.4,286047073.1,N
1501421875.3,286047070.5,N
1501421895.1,286047070.5,N
1501421896.0,286047070.5,N
1501421915.8,286047072.5,N
1501421935.7,286047070.1,N
1501421955.5,286047068.6,N
1501421975.3,286047068.7,N
1501421995.2,286047070.8,N
1501422015.9,286047071.6,N
1501422035.7,286047067.5,N
1501422055.6,286047067.5,N
1501422075.4,286047067.1,N
1501422095.2,286047067.2,N
1501422115.0,286047065.5,N
1501422115.9,286047065.5,N
1501422135.8,286047067.5,N
1501422155.6,286047065.8,N
1501422175.4,286047066.0,N
1501422195.3,286047065.6,N
1501422215.1,286047066.6,N
1501422235.8,286047063.8,N
1501422255.7,286047069.5,N
1501422275.5,286047068.3,N
1501422295.3,286047065.0,N
1501422315.2,286047063.6,N
1501422335.9,286047062.7,N
1501422355.7,286047066.3,N
1501422375.6,286047067.0,N
1501422395.4,286047066.4,N
1501422415.2,286047066.5,N
1501422435.0,286047066.9,N
1501422436.0,286047066.9,N
1501422455.8,286047071.5,N
1501422475.6,286047068.8,N
1501422495.4,286047068.0,N
1501422515.3,286047062.2,N
1501422535.1,286047063.7,N
1501422555.8,286047064.2,N
1501422575.7,286047064.6,N
1501422595.5,286047062.9,N
1501422615.3,286047064.9,N
1501422635.2,286047063.8,N
1501422655.9,286047062.6,N
1501422675.7,286047060.8,N
1501422695.6,286047060.2,N
1501422715.4,286047059.5,N
1501422735.2,286047063.3,N
1501422755.0,286047063.8,N
1501422756.0,286047063.8,N
1501422775.8,286047066.3,N
1501422795.6,286047068.4,N
1501422815.4,286047067.2,N
1501422835.3,286047067.1,N
1501422855.1,286047068.6,N
1501422875.8,286047068.3,N
1501422895.7,286047062.2,N
1501422915.5,286047064.8,N
1501422935.3,286047062.5,N
1501422955.2,286047061.7,N
1501422975.9,286047062.4,N
1501422995.7,286047062.6,N
1501423015.6,286047060.5,N
1501423035.4,286047065.0,N
1501423055.2,286047065.6,N
1501423075.1,286047067.8,N
1501423076.0,286047067.8,N
1501423095.8,286047070.0,N
1501423115.6,286047066.5,N
1501423135.5,286047063.3,N
1501423155.3,286047060.7,N
1501423175.1,286047061.8,N
1501423195.9,286047058.4,N
